EW2337 Weather Reports


time (UTC)temp
F
wind
direction
speed
knots
gust
knots
rain 1hr
in
rain 24hr
in
rain mn
in
humidity
%
barometer
mb
20260510192524 64 0 0.0 0.0 0.14 0.14 0.14 93 1015.1
20260510192445 64 250 0.0 0.0 0.26 0.21 0.21 93 1013.9
20260510192003 64 0 0.0 0.0 0.12 0.12 0.12 92 1014.8
20260510191942 64 251 0.0 0.0 0.24 0.18 0.18 92 1014.1
20260510191504 64 241 0.0 0.9 0.10 0.10 0.10 92 1014.9
20260510191438 64 251 0.0 0.0 0.17 0.17 0.17 91 1014.1
20260510191003 64 244 0.0 5.2 0.08 0.08 0.08 90 1015.0
20260510190936 64 250 0.0 0.0 0.17 0.15 0.15 90 1013.9
20260510190503 63 249 0.9 5.2 0.07 0.07 0.07 90 1015.2
20260510190433 63 243 0.0 5.2 0.19 0.14 0.14 90 1013.9
20260510190024 64 251 0.0 5.2 0.05 0.05 0.05 90 1015.0
20260510185929 64 253 0.9 0.9 0.12 0.12 0.12 90 1014.2
20260510185503 64 0 0.0 0.0 0.04 0.04 0.04 89 1015.0
20260510185427 64 254 0.0 0.0 0.12 0.11 0.11 89 1014.1
20260510185003 64 0 0.0 0.0 0.03 0.03 0.03 89 1014.8
20260510184924 64 269 0.0 0.0 0.12 0.10 0.10 89 1014.1
20260510184524 65 246 0.0 1.7 0.02 0.02 0.02 87 1015.0
20260510184421 65 245 0.0 0.0 0.12 0.09 0.09 86 1014.2
20260510184003 68 244 0.0 1.7 0.01 0.01 0.01 82 1015.0
20260510183920 69 245 0.0 0.0 0.00 0.07 0.07 79 1014.2
20260510183503 75 234 0.0 3.5 0.00 0.00 0.00 69 1014.9
20260510183417 75 246 0.0 0.0 0.00 0.07 0.07 69 1014.0
20260510183003 74 233 0.0 3.5 0.00 0.00 0.00 60 1014.8
20260510182912 74 249 0.0 0.0 0.00 0.07 0.07 62 1014.0
20260510182503 74 245 0.0 3.5 0.00 0.00 0.00 61 1015.2
20260510182409 74 249 0.0 0.0 0.00 0.07 0.07 64 1014.0
20260510182003 74 245 1.7 7.0 0.00 0.00 0.00 61 1014.7
20260510181904 74 248 0.0 1.7 0.00 0.07 0.07 59 1014.1
20260510181503 75 248 2.6 7.0 0.00 0.00 0.00 58 1015.1
20260510181402 75 228 2.6 4.3 0.00 0.07 0.07 59 1014.2
20260510181003 76 252 0.9 5.2 0.00 0.00 0.00 54 1015.1
20260510180858 76 239 0.9 2.6 0.00 0.07 0.07 56 1014.3
20260510180503 76 247 0.0 0.9 0.00 0.00 0.00 57 1015.1
20260510180356 76 254 0.9 0.9 0.00 0.07 0.07 57 1014.1
20260510180003 76 218 0.0 2.6 0.00 0.00 0.00 57 1014.9
20260510175853 76 245 0.0 0.0 0.00 0.07 0.07 56 1013.8
20260510175524 76 218 0.0 2.6 0.00 0.00 0.00 57 1015.0
20260510175348 76 244 0.9 1.7 0.00 0.07 0.07 57 1014.1
20260510175024 76 257 0.0 1.7 0.00 0.00 0.00 58 1014.7
20260510174844 77 254 0.0 0.0 0.00 0.07 0.07 59 1014.2
20260510174503 77 247 0.9 1.7 0.00 0.00 0.00 58 1014.8
20260510174342 77 242 0.0 0.0 0.00 0.07 0.07 58 1013.9
20260510174003 77 231 0.9 3.5 0.00 0.00 0.00 55 1015.1
20260510173838 78 258 0.0 0.9 0.00 0.07 0.07 58 1013.9
20260510173503 77 222 0.9 3.5 0.00 0.00 0.00 56 1014.9
20260510173334 78 193 1.7 4.3 0.00 0.07 0.07 55 1013.9
20260510173003 78 224 0.9 3.5 0.00 0.00 0.00 55 1015.0
20260510172831 78 247 0.9 1.7 0.00 0.07 0.07 56 1014.2
20260510172503 78 215 0.9 3.5 0.00 0.00 0.00 57 1014.9
20260510172327 78 249 0.0 1.7 0.00 0.07 0.07 59 1014.0
20260510172024 78 204 0.9 3.5 0.00 0.00 0.00 59 1015.1
20260510171823 78 228 0.9 2.6 0.00 0.07 0.07 57 1013.9
20260510171503 79 211 0.9 5.2 0.00 0.00 0.00 55 1015.0
20260510171321 79 208 0.0 1.7 0.00 0.07 0.07 55 1014.0
20260510171003 78 222 0.9 5.2 0.00 0.00 0.00 56 1014.9
20260510170818 78 214 0.9 2.6 0.00 0.07 0.07 58 1014.1
20260510170503 79 227 0.9 3.5 0.00 0.00 0.00 56 1015.1
20260510170314 79 213 3.5 4.3 0.00 0.07 0.07 54 1014.2
20260510170003 79 229 0.9 3.5 0.00 0.00 0.00 59 1015.0
20260510165809 78 233 0.9 1.7 0.00 0.07 0.07 58 1014.2
20260510165503 78 207 0.9 5.2 0.00 0.00 0.00 57 1015.2
20260510165307 78 215 0.9 2.6 0.00 0.07 0.07 59 1014.2
20260510165003 77 208 0.9 5.2 0.00 0.00 0.00 58 1015.2
20260510164803 78 246 0.0 1.7 0.00 0.07 0.07 58 1014.0
20260510164503 77 214 0.9 3.5 0.00 0.00 0.00 59 1014.9
20260510164300 78 216 0.0 2.6 0.00 0.07 0.07 60 1014.4
20260510164003 78 222 0.9 3.5 0.00 0.00 0.00 59 1014.9
20260510163755 77 233 0.9 2.6 0.00 0.07 0.07 59 1014.2
20260510163503 76 214 0.9 3.5 0.00 0.00 0.00 60 1015.1
20260510163251 77 241 0.0 1.7 0.00 0.07 0.07 62 1014.3
20260510163003 77 211 0.9 3.5 0.00 0.00 0.00 59 1015.1
20260510162751 77 214 0.9 2.6 0.00 0.07 0.07 60 1014.3
20260510162524 76 220 0.9 3.5 0.00 0.00 0.00 60 1015.0
20260510162248 76 245 0.0 0.9 0.00 0.07 0.07 64 1014.2
20260510162003 76 226 0.9 3.5 0.00 0.00 0.00 61 1015.1
20260510161743 76 220 0.9 1.7 0.00 0.07 0.07 61 1014.1
20260510161524 75 227 0.9 3.5 0.00 0.00 0.00 63 1015.4
20260510161239 75 253 1.7 4.3 0.00 0.07 0.07 63 1014.4
20260510161003 73 302 0.9 2.6 0.00 0.00 0.00 68 1015.3
20260510160737 72 87 0.9 2.6 0.00 0.07 0.07 67 1014.2
20260510160504 72 316 0.9 2.6 0.00 0.00 0.00 68 1014.9
20260510160232 72 284 0.9 1.7 0.00 0.07 0.07 67 1014.3
20260510160003 74 232 0.0 2.6 0.00 0.00 0.00 68 1015.0
20260510155728 73 291 0.0 0.9 0.00 0.07 0.07 66 1014.3
20260510155503 72 221 0.9 2.6 0.00 0.00 0.00 69 1015.2
20260510155224 73 250 0.9 1.7 0.00 0.07 0.07 67 1014.5
20260510155003 73 217 0.9 2.6 0.00 0.00 0.00 66 1015.2
20260510154720 74 253 0.0 0.9 0.00 0.07 0.07 66 1014.3
20260510154503 73 215 0.9 2.6 0.00 0.00 0.00 66 1015.2
20260510154024 73 217 0.9 2.6 0.00 0.00 0.00 66 1015.2
20260510153503 71 225 0.9 2.6 0.00 0.00 0.00 69 1015.4
20260510153003 71 203 0.9 3.5 0.00 0.00 0.00 71 1015.2
20260510152503 70 212 0.9 3.5 0.00 0.00 0.00 71 1015.4
20260510152003 69 207 0.9 2.6 0.00 0.00 0.00 74 1015.3
20260510151503 70 200 0.9 2.6 0.00 0.00 0.00 71 1015.4
20260510151003 70 204 0.0 2.6 0.00 0.00 0.00 71 1015.2
20260510150503 70 202 0.9 2.6 0.00 0.00 0.00 72 1015.5
20260510150003 69 201 0.9 2.6 0.00 0.00 0.00 72 1015.3
20260510145524 68 202 0.9 2.6 0.00 0.00 0.00 73 1015.2
20260510145024 69 214 0.9 3.5 0.00 0.00 0.00 75 1015.2
20260510144503 68 234 0.9 3.5 0.00 0.00 0.00 74 1015.2
20260510144003 66 277 0.0 1.7 0.00 0.00 0.00 76 1015.4
20260510143503 66 237 0.0 1.7 0.00 0.00 0.00 76 1015.4
20260510143003 66 226 0.0 1.7 0.00 0.00 0.00 76 1015.2
20260510142503 65 290 0.0 1.7 0.00 0.00 0.00 78 1015.4
20260510142003 65 224 0.0 1.7 0.00 0.00 0.00 78 1015.5
20260510141503 66 205 0.9 1.7 0.00 0.00 0.00 77 1015.6
20260510141024 65 207 0.0 1.7 0.00 0.00 0.00 78 1015.4
20260510140524 63 181 0.9 2.6 0.00 0.00 0.00 79 1015.4
20260510140003 64 188 0.9 2.6 0.00 0.00 0.00 78 1015.7
20260510135503 64 193 0.9 1.7 0.00 0.00 0.00 78 1015.3
20260510135024 64 185 0.9 2.6 0.00 0.00 0.00 78 1015.5
20260510134503 63 217 0.0 2.6 0.00 0.00 0.00 81 1015.6
20260510134024 62 196 0.9 2.6 0.00 0.00 0.00 81 1015.4
20260510133503 62 184 0.9 2.6 0.00 0.00 0.00 82 1015.4
20260510133003 62 194 0.9 1.7 0.00 0.00 0.00 82 1015.5
20260510132503 62 201 0.9 1.7 0.00 0.00 0.00 82 1015.3
20260510132003 61 219 0.0 1.7 0.00 0.00 0.00 83 1015.3
20260510131503 60 291 0.0 0.9 0.00 0.00 0.00 85 1015.2
20260510131003 60 257 0.0 1.7 0.00 0.00 0.00 85 1015.5
20260510130524 59 236 0.9 1.7 0.00 0.00 0.00 86 1015.5
20260510130003 58 212 0.9 1.7 0.00 0.00 0.00 87 1015.6
20260510125524 58 210 0.9 1.7 0.00 0.00 0.00 87 1015.6
20260510125003 57 212 0.9 1.7 0.00 0.00 0.00 87 1015.6
20260510124524 57 0 0.0 0.0 0.00 0.00 0.00 88 1015.8
20260510124003 56 0 0.0 0.0 0.00 0.00 0.00 88 1015.5
20260510123503 57 0 0.0 0.0 0.00 0.00 0.00 89 1015.5
20260510123003 56 0 0.0 0.0 0.00 0.00 0.00 89 1015.5
20260510122503 56 0 0.0 0.0 0.00 0.00 0.00 89 1015.3
20260510122003 56 0 0.0 0.0 0.00 0.00 0.00 90 1015.2
20260510121503 56 0 0.0 0.0 0.00 0.00 0.00 90 1015.2
20260510121003 55 306 0.0 0.9 0.00 0.00 0.00 90 1015.3
20260510120503 55 306 0.0 0.9 0.00 0.00 0.00 91 1015.2
20260510120003 55 268 0.0 0.9 0.00 0.00 0.00 91 1015.2
20260510115503 55 265 0.0 0.9 0.00 0.00 0.00 92 1014.8
20260510115003 54 271 0.0 0.9 0.00 0.00 0.00 92 1015.0
20260510114503 54 254 0.0 1.7 0.00 0.00 0.00 92 1014.8
20260510114003 54 236 0.0 1.7 0.00 0.00 0.00 92 1014.8
20260510113503 54 247 0.0 1.7 0.00 0.00 0.00 93 1014.9
20260510113003 54 260 0.0 0.9 0.00 0.00 0.00 93 1014.8
20260510112524 54 246 0.0 0.9 0.00 0.00 0.00 93 1014.9
20260510112003 53 320 0.0 0.9 0.00 0.00 0.00 93 1014.8
20260510111503 53 318 0.0 0.9 0.00 0.00 0.00 94 1014.5
20260510111024 53 318 0.0 0.9 0.00 0.00 0.00 94 1014.6
20260510110503 52 0 0.0 0.0 0.00 0.00 0.00 94 1014.7
20260510110003 52 213 0.0 1.7 0.00 0.00 0.00 94 1014.6
20260510105503 52 213 0.0 1.7 0.00 0.00 0.00 94 1014.5
20260510105003 52 0 0.0 0.0 0.00 0.00 0.00 94 1014.5
20260510104503 52 0 0.0 0.0 0.00 0.00 0.00 94 1014.5
20260510104003 52 0 0.0 0.0 0.00 0.00 0.00 94 1014.4
20260510103503 52 0 0.0 0.0 0.00 0.00 0.00 94 1014.4
20260510103003 51 0 0.0 0.0 0.00 0.00 0.00 94 1013.8
20260510102503 51 0 0.0 0.0 0.00 0.00 0.00 94 1013.9
20260510102003 51 0 0.0 0.0 0.00 0.00 0.00 94 1014.0
20260510101503 52 0 0.0 0.0 0.00 0.00 0.00 94 1014.0
20260510101003 51 0 0.0 0.0 0.00 0.00 0.00 94 1014.1
20260510100503 51 0 0.0 0.0 0.00 0.00 0.00 94 1013.8
20260510100024 51 0 0.0 0.0 0.00 0.00 0.00 94 1013.9
20260510095503 51 0 0.0 0.0 0.00 0.00 0.00 94 1013.9
20260510095003 51 0 0.0 0.0 0.00 0.00 0.00 94 1013.8
20260510094524 51 0 0.0 0.0 0.00 0.00 0.00 94 1013.7
20260510094024 51 0 0.0 0.0 0.00 0.00 0.00 94 1013.7
20260510093503 51 0 0.0 0.0 0.00 0.00 0.00 94 1013.6
20260510093003 51 251 0.0 2.6 0.00 0.00 0.00 94 1013.8
20260510092503 51 243 0.0 2.6 0.00 0.00 0.00 94 1013.5
20260510092003 52 251 0.0 2.6 0.00 0.00 0.00 94 1013.5
20260510091503 52 249 0.0 2.6 0.00 0.00 0.00 94 1014.1
20260510091003 52 239 0.0 1.7 0.00 0.00 0.00 94 1013.4
20260510090503 52 235 0.0 2.6 0.00 0.00 0.00 94 1013.8
20260510090024 52 244 0.9 5.2 0.00 0.00 0.00 94 1013.3
20260510085503 52 249 0.9 5.2 0.00 0.00 0.00 94 1013.9
20260510085024 52 249 0.9 5.2 0.00 0.00 0.00 94 1013.2
20260510084524 52 255 0.9 5.2 0.00 0.00 0.00 94 1013.5
20260510084003 51 0 0.0 0.0 0.00 0.00 0.00 93 1013.2
20260510083524 51 0 0.0 0.0 0.00 0.00 0.00 93 1013.2
20260510083003 51 0 0.0 0.0 0.00 0.00 0.00 93 1013.0
20260510082503 52 0 0.0 0.0 0.00 0.00 0.00 93 1013.2
20260510082003 52 0 0.0 0.0 0.00 0.00 0.00 93 1013.4
20260510081503 52 0 0.0 0.0 0.00 0.00 0.00 93 1012.8
20260510081003 52 0 0.0 0.0 0.00 0.00 0.00 93 1013.1
20260510080524 52 0 0.0 0.0 0.00 0.00 0.00 93 1013.1
20260510080003 52 0 0.0 0.0 0.00 0.00 0.00 93 1013.0
20260510075524 52 0 0.0 0.0 0.00 0.00 0.00 93 1012.9
20260510075003 52 0 0.0 0.0 0.00 0.00 0.00 93 1013.0
20260510074503 52 0 0.0 0.0 0.00 0.00 0.00 93 1012.8
20260510074003 52 0 0.0 0.0 0.00 0.00 0.00 93 1012.9
20260510073524 52 0 0.0 0.0 0.00 0.00 0.00 93 1013.0
20260510073003 52 0 0.0 0.0 0.00 0.00 0.00 93 1012.6
20260510072503 53 0 0.0 0.0 0.00 0.00 0.00 93 1012.8
20260510072003 53 0 0.0 0.0 0.00 0.00 0.00 93 1012.8
20260510071503 53 0 0.0 0.0 0.00 0.00 0.00 93 1012.5
20260510071003 53 0 0.0 0.0 0.00 0.00 0.00 92 1012.6
20260510070503 53 0 0.0 0.0 0.00 0.00 0.00 92 1012.4
20260510070004 53 0 0.0 0.0 0.00 0.00 0.00 92 1012.3
20260510065503 53 0 0.0 0.0 0.00 0.00 0.00 92 1012.2
20260510065003 53 0 0.0 0.0 0.00 0.00 0.00 92 1012.1
20260510064503 53 0 0.0 0.0 0.00 0.00 0.00 92 1012.3
20260510064003 53 0 0.0 0.0 0.00 0.00 0.00 92 1012.3
20260510063503 53 0 0.0 0.0 0.00 0.00 0.00 92 1012.6
20260510063003 53 0 0.0 0.0 0.00 0.00 0.00 92 1012.4
20260510062524 53 0 0.0 0.0 0.00 0.00 0.00 92 1012.8
20260510062003 53 0 0.0 0.0 0.00 0.00 0.00 92 1012.3
20260510061503 53 0 0.0 0.0 0.00 0.00 0.00 92 1012.7
20260510061003 53 0 0.0 0.0 0.00 0.00 0.00 92 1012.6
20260510060503 53 0 0.0 0.0 0.00 0.00 0.00 92 1012.9
20260510060003 53 0 0.0 0.0 0.00 0.00 0.00 92 1012.7
20260510055524 53 0 0.0 0.0 0.00 0.00 0.00 91 1012.7
20260510055024 53 0 0.0 0.0 0.00 0.00 0.00 91 1012.9
20260510054503 54 0 0.0 0.0 0.00 0.00 0.00 91 1013.0
20260510054003 54 0 0.0 0.0 0.00 0.00 0.00 91 1012.6
20260510053524 54 0 0.0 0.0 0.00 0.00 0.00 91 1012.8
20260510053003 54 0 0.0 0.0 0.00 0.00 0.00 91 1013.0
20260510052503 54 0 0.0 0.0 0.00 0.00 0.00 91 1012.9
20260510052003 54 0 0.0 0.0 0.00 0.00 0.00 91 1013.1
20260510051503 54 0 0.0 0.0 0.00 0.00 0.00 91 1013.0
20260510051024 54 0 0.0 0.0 0.00 0.00 0.00 91 1013.0
20260510050503 54 0 0.0 0.0 0.00 0.00 0.00 91 1013.0
20260510050024 54 0 0.0 0.0 0.00 0.00 0.00 91 1013.0
20260510045503 54 0 0.0 0.0 0.00 0.00 0.00 91 1013.2
20260510045024 54 0 0.0 0.0 0.00 0.00 0.00 91 1013.1
20260510044503 54 0 0.0 0.0 0.00 0.00 0.00 91 1013.1
20260510044003 54 0 0.0 0.0 0.00 0.00 0.00 91 1013.3
20260510043503 54 0 0.0 0.0 0.00 0.00 0.00 91 1013.1
20260510043003 54 0 0.0 0.0 0.00 0.00 0.00 91 1013.2
20260510042524 54 0 0.0 0.0 0.00 0.00 0.00 91 1013.2
20260510042003 54 0 0.0 0.0 0.00 0.00 0.00 91 1013.1
20260510041503 54 0 0.0 0.0 0.00 0.00 0.00 91 1013.2
20260510041003 54 0 0.0 0.0 0.00 0.00 0.00 90 1013.0
20260510040503 54 0 0.0 0.0 0.00 0.00 0.00 90 1013.3
20260510040004 54 0 0.0 0.0 0.00 0.00 0.00 90 1013.3
20260510035503 54 0 0.0 0.0 0.00 0.00 0.00 90 1013.3
20260510035003 54 0 0.0 0.0 0.00 0.00 0.00 90 1013.4
20260510034524 54 0 0.0 0.0 0.00 0.00 0.00 90 1012.9
20260510034003 55 0 0.0 0.0 0.00 0.00 0.00 90 1013.2
20260510033503 55 0 0.0 0.0 0.00 0.00 0.00 90 1013.0
20260510033003 55 0 0.0 0.0 0.00 0.00 0.00 90 1013.1
20260510032503 55 0 0.0 0.0 0.00 0.00 0.00 89 1012.9
20260510032003 55 0 0.0 0.0 0.00 0.00 0.00 89 1012.9
20260510031524 55 0 0.0 0.0 0.00 0.00 0.00 89 1012.9
20260510031003 55 0 0.0 0.0 0.00 0.00 0.00 89 1012.8
20260510030503 56 0 0.0 0.0 0.00 0.00 0.00 89 1012.7
20260510030003 56 0 0.0 0.0 0.00 0.00 0.00 89 1012.6
20260510025503 56 0 0.0 0.0 0.00 0.00 0.00 89 1012.8
20260510025003 56 0 0.0 0.0 0.00 0.00 0.00 89 1012.8
20260510024503 56 0 0.0 0.0 0.00 0.00 0.00 88 1012.8
20260510024003 56 0 0.0 0.0 0.00 0.00 0.00 88 1012.8
20260510023503 56 0 0.0 0.0 0.00 0.00 0.00 88 1012.8
20260510023024 56 0 0.0 0.0 0.00 0.00 0.00 88 1012.8
20260510022524 56 0 0.0 0.0 0.00 0.00 0.00 88 1013.0
20260510022003 56 271 0.0 0.9 0.00 0.00 0.00 88 1013.1
20260510021503 56 273 0.0 0.9 0.00 0.00 0.00 88 1012.8
20260510021003 57 282 0.0 0.9 0.00 0.00 0.00 88 1012.6
20260510020503 57 0 0.0 0.0 0.00 0.00 0.00 87 1012.9
20260510020003 56 0 0.0 0.0 0.00 0.00 0.00 87 1012.7
20260510015503 57 0 0.0 0.0 0.00 0.00 0.00 87 1012.5
20260510015003 57 0 0.0 0.0 0.00 0.00 0.00 87 1012.7
20260510014524 57 0 0.0 0.0 0.00 0.00 0.00 87 1012.7
20260510014003 57 283 0.0 0.9 0.00 0.00 0.00 87 1012.4
20260510013503 57 272 0.0 0.9 0.00 0.00 0.00 86 1012.6
20260510013003 57 263 0.0 0.9 0.00 0.00 0.00 86 1012.5
20260510012503 57 278 0.0 1.7 0.00 0.00 0.00 86 1012.5
20260510012024 58 281 0.0 1.7 0.00 0.00 0.00 85 1012.5
20260510011503 58 281 0.0 0.9 0.00 0.00 0.00 85 1012.6
20260510011003 58 280 0.0 0.9 0.00 0.00 0.00 85 1012.2
20260510010503 58 271 0.0 0.9 0.00 0.00 0.00 85 1012.2
20260510010003 58 273 0.0 0.9 0.00 0.00 0.00 85 1012.1
20260510005503 58 275 0.0 0.9 0.00 0.00 0.00 85 1012.1
20260510005003 58 290 0.0 0.9 0.00 0.00 0.00 84 1012.2
20260510004503 58 284 0.0 0.9 0.00 0.00 0.00 83 1012.0
20260510004003 58 285 0.0 0.9 0.00 0.00 0.00 83 1012.2
20260510003503 58 285 0.0 0.9 0.00 0.00 0.00 83 1012.0
20260510003003 59 289 0.0 0.9 0.00 0.00 0.00 83 1012.1
20260510002503 59 293 0.0 0.9 0.00 0.00 0.00 83 1012.4
20260510002024 59 278 0.0 0.9 0.00 0.00 0.00 83 1012.2
20260510001503 59 279 0.0 0.9 0.00 0.00 0.00 82 1012.1
20260510001003 59 283 0.0 1.7 0.00 0.00 0.00 82 1012.1
20260510000503 59 287 0.0 1.7 0.00 0.00 0.00 82 1012.3
20260510000003 59 273 0.0 0.9 0.00 0.00 0.00 82 1012.2
20260509235503 59 295 0.0 0.9 0.00 0.00 0.00 82 1012.1
20260509235003 59 289 0.0 0.9 0.00 0.00 0.00 82 1012.2
20260509234503 59 290 0.0 0.9 0.00 0.00 0.00 82 1012.3
20260509234003 59 324 0.0 1.7 0.00 0.00 0.00 81 1012.0
20260509233503 60 322 0.0 1.7 0.00 0.00 0.00 81 1012.2
20260509233024 60 315 0.0 1.7 0.00 0.00 0.00 80 1012.2
20260509232503 60 307 0.0 1.7 0.00 0.00 0.00 80 1012.2
20260509232003 60 303 0.0 1.7 0.00 0.00 0.00 80 1011.8
20260509231503 60 316 0.0 1.7 0.00 0.00 0.00 80 1012.0
20260509231024 60 343 0.0 1.7 0.00 0.00 0.00 79 1011.9
20260509230503 60 314 0.0 1.7 0.00 0.00 0.00 79 1011.7
20260509230003 60 259 0.0 1.7 0.00 0.00 0.00 79 1012.1
20260509225503 60 264 0.0 1.7 0.00 0.00 0.00 79 1011.8
20260509225003 60 282 0.0 0.9 0.00 0.00 0.00 79 1011.9
20260509224503 60 278 0.0 0.9 0.00 0.00 0.00 79 1012.0
20260509224003 60 317 0.0 2.6 0.00 0.00 0.00 79 1012.1
20260509223503 60 354 0.0 2.6 0.00 0.00 0.00 79 1012.0
20260509223003 60 354 0.0 1.7 0.00 0.00 0.00 79 1012.3
20260509222503 60 336 0.9 1.7 0.00 0.00 0.00 79 1012.2
20260509222003 60 343 0.9 1.7 0.00 0.00 0.00 80 1012.0
20260509221503 60 16 0.9 1.7 0.00 0.00 0.00 80 1011.8
20260509221024 60 31 0.0 1.7 0.00 0.00 0.00 80 1012.0
20260509220503 60 343 0.0 1.7 0.00 0.00 0.00 80 1012.1
20260509220024 60 10 0.9 1.7 0.00 0.00 0.00 81 1012.0
20260509215503 60 30 0.9 1.7 0.00 0.00 0.00 80 1012.2
20260509215003 60 29 0.0 1.7 0.00 0.00 0.00 80 1012.1
20260509214503 60 12 0.0 1.7 0.00 0.00 0.00 80 1012.1
20260509214003 60 4 0.0 1.7 0.00 0.00 0.00 80 1012.0
20260509213503 60 27 0.0 1.7 0.00 0.00 0.00 79 1012.1
20260509213003 60 36 0.0 1.7 0.00 0.00 0.00 79 1012.0
20260509212524 60 19 0.9 1.7 0.00 0.00 0.00 79 1012.1
20260509212024 60 13 0.9 1.7 0.00 0.00 0.00 79 1012.1
20260509211503 60 22 0.0 1.7 0.00 0.00 0.00 79 1011.7
20260509211003 60 334 0.0 1.7 0.00 0.00 0.00 79 1012.2
20260509210503 60 319 0.0 1.7 0.00 0.00 0.00 79 1011.8
20260509210024 60 352 0.0 1.7 0.00 0.00 0.00 79 1012.0
20260509205503 60 354 0.0 1.7 0.00 0.00 0.00 78 1012.0
20260509205003 61 311 0.0 0.9 0.00 0.00 0.00 78 1012.1
20260509204503 61 299 0.0 1.7 0.00 0.00 0.00 77 1012.2
20260509204003 61 268 0.0 2.6 0.00 0.00 0.00 77 1012.1
20260509203524 61 258 0.0 2.6 0.00 0.00 0.00 77 1012.0
20260509203024 61 264 0.0 1.7 0.00 0.00 0.00 77 1012.0
20260509202503 61 275 0.0 1.7 0.00 0.00 0.00 77 1012.0
20260509202003 61 279 0.9 1.7 0.00 0.00 0.00 77 1012.0
20260509201503 62 313 0.9 2.6 0.00 0.00 0.00 76 1012.2
20260509201003 61 340 0.9 2.6 0.00 0.00 0.00 77 1012.2
20260509200503 61 331 0.0 1.7 0.00 0.00 0.00 76 1012.1
20260509200003 61 324 0.9 1.7 0.00 0.00 0.00 76 1012.0
20260509195503 61 295 0.9 1.7 0.00 0.00 0.00 77 1012.0
20260509195003 62 300 0.0 1.7 0.00 0.00 0.00 76 1012.1
20260509194503 61 274 0.9 6.1 0.00 0.00 0.00 76 1012.1
20260509194003 61 261 0.9 6.1 0.00 0.00 0.00 76 1012.0
20260509193503 62 260 0.9 3.5 0.00 0.00 0.00 74 1012.1
20260509193003 63 253 0.9 3.5 0.00 0.00 0.00 73 1012.4